Tracking 19562 objects as of 24-Mar-2019
HD Live streaming from Space Station
objects crossing your sky now

SATCOM 2

Track SATCOM 2 now!
SATCOM 2 is classified as:


NORAD ID: 8774
Int'l Code: 1976-029A
Perigee: 36,030.0 km
Apogee: 36,495.7 km
Inclination: 13.9 °
Period: 1,460.1 minutes
Semi major axis: 42633 km
RCS: 2.9464 m2 (large)
Launch date: March 26, 1976
Source: United States (US)
Launch site: AIR FORCE EASTERN TEST RANGE (AFETR)
aabbcc
Your satellite tracking list
Your tracking list is empty




NASA's NSSDC Master Catalog

Two Line Element Set (TLE):
1  8774U 76029A   19082.26749162 -.00000002 +00000-0 +00000-0 0  9990
2  8774 013.8959 332.3316 0054621 167.6893 192.4135 00.98621486093463
Source of the keplerian elements: AFSPC